This is the latest recevied weather packets stored in our database for station/object M0CJS. If no packets are shown the sender has not sent any weather packets the latest 10 day(s).
| Time | Temp. | Humidity | Pressure | Rain* | Wind** | Luminosity | Snow |
|---|---|---|---|---|---|---|---|
| 1777197316 | 15° C | 66% | 1027.1 hPa | 0 mm | - | - | - |
| 1777194916 | 13.33° C | 71% | 1027.3 hPa | 0 mm | - | - | - |
| 1777193736 | 12.78° C | 73% | 1027.3 hPa | 0 mm | - | - | - |
| 1777192516 | 11.67° C | 77% | 1027.4 hPa | 0 mm | - | - | - |
| 1777187116 | 7.22° C | 91% | 1027.4 hPa | 0 mm | - | - | - |
| 1777183516 | 6.67° C | 92% | 1027.1 hPa | 0 mm | - | - | - |
| 1777182316 | 6.67° C | 92% | 1026.9 hPa | 0 mm | - | - | - |
| 1777173917 | 6.67° C | 92% | 1026.7 hPa | 0 mm | - | - | - |
| 1777169717 | 7.22° C | 92% | 1026.3 hPa | 0 mm | - | - | - |
| 1777167937 | 7.22° C | 92% | 1026.1 hPa | 0 mm | - | - | - |
| 1777165517 | 7.22° C | 92% | 1026.3 hPa | 0 mm | - | - | - |
| 1777159557 | 6.67° C | 91% | 1026 hPa | 0 mm | - | - | - |
| 1777157717 | 7.78° C | 87% | 1025.6 hPa | 0 mm | - | - | - |
| 1777154717 | 8.89° C | 82% | 1025.3 hPa | 0 mm | - | - | - |
| 1777152317 | 10° C | 81% | 1024.8 hPa | 0 mm | - | - | - |
| 1777149917 | 11.67° C | 77% | 1024.3 hPa | 0 mm | - | - | - |
| 1777143317 | 18.33° C | 34% | 1022.9 hPa | 0 mm | - | - | - |
| 1777140917 | 18.89° C | 35% | 1022.5 hPa | 0 mm | - | - | - |
| 1777139736 | 19.44° C | 34% | 1022.6 hPa | 0 mm | - | - | - |
| 1777139116 | 19.44° C | 33% | 1022.5 hPa | 0 mm | - | - | - |
| 1777138516 | 19.44° C | 34% | 1022.4 hPa | 0 mm | - | - | - |
| 1777132556 | 20° C | 37% | 1022.1 hPa | 0 mm | - | - | - |
| 1777131916 | 20° C | 37% | 1022.2 hPa | 0 mm | - | - | - |
| 1777125916 | 19.44° C | 41% | 1022.7 hPa | 0 mm | - | - | - |
| 1777124716 | 20° C | 40% | 1022.7 hPa | 0 mm | - | - | - |
* Rain latest hour (hover to see other rain measurements)
** Current wind speed in m/s (hover to see current wind gust speed)